Location: Hamburg
(53.5554°N, 9.9941°E)
Time: 00:18:34
(UTC+02:00)

ISS - Visible Passes

Search period start: 22 October 2019 00:00
Search period end: 31 October 2019 23:00
Orbit: 411 x 421 km, 51.6° (Epoch: 21 October)

Date Brightness Start Highest point End Pass type
(mag) Time Alt. Az. Time Alt. Az. Time Alt. Az.
26 Oct -1.0 06:49:32 10° S 06:51:45 17° SE 06:53:57 10° ESE visible
27 Oct -0.8 05:02:08 10° SSE 05:03:21 12° SE 05:04:36 10° ESE visible
28 Oct -2.0 05:47:56 10° SW 05:50:53 28° SSE 05:53:51 10° E visible
29 Oct -1.7 05:01:14 18° S 05:02:24 21° SSE 05:05:02 10° E visible
29 Oct -3.1 06:35:25 10° WSW 06:38:42 53° SSE 06:41:59 10° E visible
30 Oct -0.9 04:14:50 14° SE 04:14:50 14° SE 04:16:03 10° ESE visible
30 Oct -2.9 05:47:44 16° SW 05:50:07 44° SSE 05:53:21 10° E visible
31 Oct -2.6 05:01:13 34° S 05:01:32 35° SSE 05:04:39 10° E visible
31 Oct -3.4 06:34:40 10° W 06:38:01 63° S 06:41:22 10° E visible
